ROCSAT 2

Satellite information

Favourite Embed

Satellite Type and Status

PAYLOADIN ORBIT

Key statistics

Satellite ROCSAT 2 at a glance.

Uptime

7878

Days in orbit

Revolutions

≈ 14.0

Per day

Orbit

SSO

Sun Synchronous Orbit

Inclination

98.8

Latest

Satellite identification and parameters

Extended collection of information and parameters for ROCSAT 2.

Object identification

Identified? True

Debris? False

Object name: ROCSAT 2

International designator: 2004-018A

Object number (NORAD): 28254

Object ID (CCSDS): 28254

Country: TAIWAN (TWN)

Current information (Y/N): Y

RCS size: LARGE

Orbital parameters

Period: 102.769 minutes

Inclination: 98.8152 deg

SMA: 7267.776 km

Apoapsis: 891.858 km

Periapsis: 887.423 km

RAAN: 316.1846 deg

Eccentricy: 0.0003051

Argument of periapsis: 123.2121 deg

Mean anomaly: 50.6728 deg

Mean motion: 14.01201115 rev/day

Mean motion (dot): -0.00000124 rev/day2

B* drag term: -0.000054622183 1/REarth

Two-line elements (TLE)

Creation date: Dec. 14, 2025, 3:07 a.m.

Reference frame: TEME

Reference center: EARTH

Epoch: Dec. 13, 2025, 4:35 p.m. UTC

TLE line 0: 0 ROCSAT 2

TLE line 1: 1 28254U 04018A 25347.69110358 -.00000124 00000-0 -54622-4 0 9990

TLE line 2: 2 28254 98.8152 316.1846 0003051 123.2121 50.6728 14.01201115102777

Live tracking on map

Real-time ground track for satellite ROCSAT 2.

In-orbit conjunctions

There are no conjunctions computed for ROCSAT 2, at the moment. Check back to stay up to date, as we update our databases every day.

Go to all conjunctions

Associated space launch

ROCSAT 2 (Republic of China Satellite 2) is the second high-resolution Earth observation satellite for the Taiwanese National Space Program Office (NSPO) whose mission is regional remote sensing – to collect data to be used for natural disaster evaluation, agricultural applications, urban planning strategy, environmental monitoring, and ocean surveillance. In addition, the satellite's payload will include an auroral observation instrument.

ROCSAT 2 was lifted into orbit during the mission ‘Taurus 3210 | Formosat-2’, on board a Minotaur-C 3210 space rocket.

The launch took place on May 20, 2004, 5:47 p.m. from Space Launch Complex 576E.

For more information about the launch, click the button.

Launch to space Taurus 3210 | Formosat-2
Taurus 3210 | Formosat-2

Agency: N/A

Status: Launch Successful

Launch date: May 20, 2004, 5:47 p.m. UTC

Rocket: Minotaur-C 3210

Launch pad: Space Launch Complex 576E

Location: Vandenberg SFB, CA, USA

...

Latest news about this satellite

There are no fresh news available about this satellite. Check back as we update our databases every day.


Newsletter sign-up

Weekly statistics, charts and insights to help you stay on top of the space industry.